Flag for U.S.A. Weather past 2 weeks in Worcester, Massachusetts, U.S.A.

Now
77 °F

Broken clouds.


Feels Like: 79 °F
Forecast: 63 / 77 °F
Wind: 13 mph from South

Location: Worcester Regional Airport

Current Time: Jul 28, 2014 at 2:43:57 PM

Latest Report: Jul 28, 2014 at 1:54 PM


Visibility: 10 mi

Pressure: 29.51 "Hg

Humidity: 71%

Dew point: 67 °F

Location of WorcesterLocation

Historic Weather in Worcester — Graph

°F

Worcester temperature yesterday

Maximum temperature yesterday: 75 °F (at 6:01 PM)
Minimum temperature yesterday: 64 °F (at 12:54 AM)
Average temperature yesterday: 68 °F

Past Weeks' High & Low Weather Summary

 TemperatureHumidityPressure
High86 °F (Jul 23, 2:54 PM)100% (Jul 21, 6:54 AM)30.29 "Hg (Jul 21, 6:54 AM)
Low55 °F (Jul 25, 5:54 AM)36% (Jul 18, 4:54 PM)29.54 "Hg (Jul 28, 12:54 PM)
Average70 °F75%29.97 "Hg
* Reported Jul 13 12:54 PM — Jul 28 12:54 PM, Worcester, Weather by CustomWeather, © 2014

Note: Actual official high and low records may vary slightly from our data, if they occured in-between our weather recording intervals... More about our weather records

Advertising

Worcester weather history for previous 24 hours

 ConditionsComfort  
Time TempWeatherWind HumidityBarometerVisibility
12:54 PM
Jul 28
75 °FMostly cloudy.12 mph74%29.54 "Hg10 mi
11:54 AM74 °FMostly cloudy.14 mph76%29.55 "Hg10 mi
10:54 AM72 °FMostly cloudy.13 mph84%29.57 "Hg10 mi
9:54 AM69 °FMostly cloudy.12 mph96%29.57 "Hg10 mi
8:56 AM69 °FLight rain. Fog.10 mph96%29.59 "Hg3 mi
7:54 AM69 °FLight rain. Fog.9 mph96%29.58 "Hg1 mi
6:54 AM68 °FLight rain. Fog.10 mph96%29.60 "Hg0 mi
5:54 AM66 °FFog.5 mph100%29.62 "Hg0 mi
4:54 AM66 °FFog.7 mph100%29.63 "Hg0 mi
3:54 AM66 °FFog.8 mph96%29.64 "Hg0 mi
3:03 AM65 °FFog.8 mph97%29.67 "Hg2 mi
2:54 AM65 °FLow clouds.8 mph97%29.66 "Hg9 mi
1:54 AM64 °FClear.6 mph90%29.67 "Hg10 mi
12:54 AM64 °FClear.5 mph94%29.70 "Hg10 mi
11:54 PM
Jul 27
65 °FClear.6 mph91%29.70 "Hg10 mi
10:54 PM66 °FClear.8 mph90%29.71 "Hg10 mi
9:54 PM68 °FClear.6 mph93%29.71 "Hg9 mi
8:54 PM71 °FSunny.7 mph90%29.71 "Hg10 mi
7:54 PM72 °FPassing clouds.13 mph91%29.70 "Hg10 mi
6:54 PM73 °FSunny.7 mph88%29.70 "Hg10 mi
6:01 PM75 °FScattered clouds.10 mph79%29.72 "Hg10 mi
4:54 PM74 °FScattered clouds.10 mph82%29.71 "Hg10 mi
3:54 PM73 °FBroken clouds.10 mph81%29.72 "Hg10 mi
2:54 PM72 °FMostly cloudy.12 mph87%29.74 "Hg10 mi
Weather by CustomWeather, © 2014

See weather overviewHow to use our weather pages